Tracking 19634 objects as of 23-May-2019
HD Live streaming from Space Station
objects crossing your sky now

APRIZESAT 6

Track APRIZESAT 6 now!
10-day predictions
APRIZESAT 6 is classified as:


NORAD ID: 37793
Int'l Code: 2011-044F
Perigee: 627.6 km
Apogee: 693.6 km
Inclination: 98.4 °
Period: 97.8 minutes
Semi major axis: 7031 km
RCS: 0.203 m2 (medium)
Launch date: August 17, 2011
Source: United States (US)
Launch site: Orenburg, Russia (OREN)
aabbcc
Your satellite tracking list
Your tracking list is empty




NASA's NSSDC Master Catalog

Two Line Element Set (TLE):
1 37793U 11044F   19143.05142576  .00000029  00000-0  13288-4 0  9994
2 37793  98.3860 299.3233 0046973   3.1283 110.5714 14.72386291416982
Source of the keplerian elements: AFSPC